TALON11 KNLC-KNUW

Flight info

Callsign TALON11
Flight time N/A
Altitude 29000
Route KNLC JAGWA JUNEJ JUDAH JOGEN JINMO KNUW
Aircraft F18S/M-SDGWY/L

Departure

Time 2026-04-16 06:42
Airport Lemoore Naval Air Station (Reeves Field) Airport (KNLC)

Arrival

Time N/A
Airport Whidbey Island Naval Air Station (Ault Field) (KNUW)
Time Latitude Longitude Altitude Speed Heading
2026-04-16 06:37 36.33069 -119.94817 228 ft 0 kts 155°
2026-04-16 06:39 36.33039 -119.94793 228 ft 9 kts 128°
2026-04-16 06:40 36.33080 -119.94717 227 ft 17 kts 51°
2026-04-16 06:40 36.33183 -119.94754 227 ft 19 kts 330°
2026-04-16 06:40 36.33275 -119.94796 227 ft 2 kts 20°
2026-04-16 06:40 36.33290 -119.94740 227 ft 12 kts 77°
2026-04-16 06:41 36.33341 -119.94590 226 ft 23 kts 62°
2026-04-16 06:41 36.33483 -119.94543 225 ft 22 kts
2026-04-16 06:41 36.33606 -119.94534 224 ft 10 kts
2026-04-16 06:41 36.33648 -119.94554 224 ft 26 kts 335°
2026-04-16 06:42 36.34656 -119.95093 439 ft 261 kts 337°
2026-04-16 06:42 36.35786 -119.95675 3795 ft 147 kts 334°
2026-04-16 06:42 36.37042 -119.96483 6152 ft 260 kts 332°
2026-04-16 06:42 36.38351 -119.97321 8296 ft 159 kts 332°
2026-04-16 06:43 36.39183 -119.97860 9889 ft 129 kts 332°
2026-04-16 06:43 36.40080 -119.98448 11667 ft 174 kts 330°
2026-04-16 06:43 36.41327 -119.99228 14040 ft 236 kts 332°
2026-04-16 06:43 36.42955 -120.00243 16488 ft 282 kts 330°
2026-04-16 06:44 36.44696 -120.01302 19137 ft 260 kts 331°
2026-04-16 06:44 36.46162 -120.02139 21169 ft 200 kts 331°
2026-04-16 06:44 36.47254 -120.02733 22563 ft 176 kts 330°
2026-04-16 06:44 36.48470 -120.03423 22954 ft 204 kts 331°
2026-04-16 06:45 36.49821 -120.04223 23713 ft 225 kts 330°
2026-04-16 06:45 36.51221 -120.05045 24871 ft 213 kts 330°
2026-04-16 06:45 36.52539 -120.05765 26125 ft 209 kts 332°
2026-04-16 06:45 36.53858 -120.06464 27071 ft 198 kts 330°
2026-04-16 06:46 36.55037 -120.07080 28100 ft 172 kts 329°
2026-04-16 06:46 36.56142 -120.07677 28515 ft 178 kts 327°
2026-04-16 06:46 36.57256 -120.08309 28887 ft 177 kts 327°
2026-04-16 06:46 36.58419 -120.08993 28989 ft 195 kts 327°
2026-04-16 06:47 36.59685 -120.09736 29103 ft 210 kts 327°
2026-04-16 06:47 36.61061 -120.10661 29098 ft 241 kts 323°
2026-04-16 06:47 36.62577 -120.11775 29087 ft 256 kts 323°
2026-04-16 06:47 36.64105 -120.12906 29086 ft 256 kts 323°
2026-04-16 06:48 36.65615 -120.14019 29082 ft 255 kts 323°
2026-04-16 06:48 36.67157 -120.15121 29085 ft 255 kts 324°
2026-04-16 06:48 36.68695 -120.16221 29084 ft 255 kts 323°
2026-04-16 06:48 36.70225 -120.17330 29088 ft 255 kts 323°
2026-04-16 06:49 36.71754 -120.18446 29089 ft 254 kts 323°
2026-04-16 06:49 36.73278 -120.19561 29088 ft 254 kts 323°
2026-04-16 06:49 36.74799 -120.20676 29088 ft 253 kts 323°
2026-04-16 06:49 36.76317 -120.21789 29084 ft 253 kts 323°
2026-04-16 06:50 36.77836 -120.22903 29088 ft 253 kts 323°
2026-04-16 06:50 36.79329 -120.23999 29090 ft 252 kts 323°
2026-04-16 06:50 36.80839 -120.25106 29088 ft 251 kts 323°
2026-04-16 06:50 36.82344 -120.26208 29090 ft 250 kts 323°
2026-04-16 06:51 36.83840 -120.27303 29089 ft 249 kts 323°
2026-04-16 06:51 36.85328 -120.28392 29089 ft 247 kts 323°
2026-04-16 06:51 36.86806 -120.29473 29089 ft 245 kts 323°
2026-04-16 06:51 36.88266 -120.30538 29091 ft 241 kts 323°
2026-04-16 06:52 36.89703 -120.31585 29089 ft 236 kts 323°
2026-04-16 06:52 36.91086 -120.32587 29089 ft 229 kts 323°
2026-04-16 06:52 36.92435 -120.33556 29088 ft 218 kts 323°
2026-04-16 06:52 36.93699 -120.34467 29088 ft 201 kts 322°
2026-04-16 06:53 36.94849 -120.35300 29086 ft 182 kts 321°
2026-04-16 06:53 36.95926 -120.36093 29086 ft 175 kts 322°
2026-04-16 06:53 36.97014 -120.36860 28647 ft 187 kts 325°
2026-04-16 06:53 36.98279 -120.37634 27715 ft 220 kts 328°
2026-04-16 06:54 36.99785 -120.38537 26794 ft 262 kts 329°
2026-04-16 06:54 37.01574 -120.39623 25933 ft 309 kts 330°
2026-04-16 06:54 37.03619 -120.40873 25394 ft 340 kts 330°
2026-04-16 06:54 37.05772 -120.42191 25275 ft 359 kts 330°
2026-04-16 06:55 37.08076 -120.43621 25113 ft 378 kts 330°
2026-04-16 06:55 37.10403 -120.45236 25169 ft 390 kts 325°
2026-04-16 06:55 37.12722 -120.47141 25059 ft 407 kts 323°
2026-04-16 06:55 37.15099 -120.49165 25077 ft 420 kts 323°
2026-04-16 06:56 37.17548 -120.51256 25087 ft 433 kts 323°
2026-04-16 06:56 37.20079 -120.53404 25092 ft 446 kts 323°
2026-04-16 06:56 37.22695 -120.55604 25096 ft 459 kts 324°
2026-04-16 06:56 37.25362 -120.57822 25093 ft 473 kts 324°
2026-04-16 06:57 37.28147 -120.60120 25097 ft 487 kts 324°
2026-04-16 06:57 37.31027 -120.62471 25101 ft 501 kts 324°
2026-04-16 06:57 37.33984 -120.64895 25100 ft 515 kts 324°
2026-04-16 06:57 37.37019 -120.67394 25096 ft 529 kts 324°
2026-04-16 06:58 37.40132 -120.69965 25093 ft 542 kts 324°
2026-04-16 06:58 37.43318 -120.72600 25093 ft 554 kts 324°
2026-04-16 06:58 37.46568 -120.75292 25089 ft 563 kts 324°
2026-04-16 06:58 37.49853 -120.78013 25094 ft 566 kts 324°
2026-04-16 06:59 37.53098 -120.80700 25116 ft 567 kts 324°
2026-04-16 06:59 37.56398 -120.83431 25121 ft 567 kts 324°
2026-04-16 06:59 37.59674 -120.86139 25142 ft 562 kts 324°
2026-04-16 06:59 37.63058 -120.88588 25083 ft 564 kts 338°
2026-04-16 07:00 37.66952 -120.89355 25079 ft 571 kts 356°
2026-04-16 07:00 37.70925 -120.89266 25085 ft 573 kts 360°
2026-04-16 07:00 37.74913 -120.88972 25089 ft 574 kts
2026-04-16 07:01 37.82568 -120.88228 25096 ft 519 kts
2026-04-16 07:01 37.85979 -120.87884 25104 ft 477 kts
2026-04-16 07:01 37.89154 -120.87606 25113 ft 441 kts 359°
2026-04-16 07:01 37.92187 -120.87418 25116 ft 437 kts 358°
2026-04-16 07:02 37.95246 -120.87307 25113 ft 436 kts 357°
2026-04-16 07:02 37.98247 -120.87249 25119 ft 432 kts 356°
2026-04-16 07:02 38.01266 -120.87232 25121 ft 436 kts 356°
2026-04-16 07:02 38.04303 -120.87238 25124 ft 436 kts 355°
2026-04-16 07:03 38.07332 -120.87256 25132 ft 435 kts 355°
2026-04-16 07:03 38.10365 -120.87285 25131 ft 437 kts 355°
2026-04-16 07:03 38.13408 -120.87322 25129 ft 438 kts 355°
2026-04-16 07:03 38.16412 -120.87363 25130 ft 437 kts 355°
2026-04-16 07:04 38.19446 -120.87406 25127 ft 437 kts 355°
2026-04-16 07:04 38.22492 -120.87455 25122 ft 438 kts 355°
2026-04-16 07:04 38.25538 -120.87505 25124 ft 438 kts 354°
2026-04-16 07:04 38.28586 -120.87558 25125 ft 438 kts 354°
2026-04-16 07:05 38.31628 -120.87610 25124 ft 438 kts 354°
2026-04-16 07:05 38.34675 -120.87662 25127 ft 438 kts 354°
2026-04-16 07:05 38.37728 -120.87715 25126 ft 439 kts 354°
2026-04-16 07:05 38.40779 -120.87769 25126 ft 439 kts 354°
2026-04-16 07:06 38.43791 -120.87822 25125 ft 438 kts 354°
2026-04-16 07:06 38.46840 -120.87876 25125 ft 438 kts 354°
2026-04-16 07:06 38.49893 -120.87929 25122 ft 439 kts 354°
2026-04-16 07:06 38.52951 -120.87983 25120 ft 440 kts 354°
2026-04-16 07:07 38.56010 -120.88038 25114 ft 440 kts 354°
2026-04-16 07:07 38.59069 -120.88092 25125 ft 440 kts 354°
2026-04-16 07:07 38.62129 -120.88146 25129 ft 441 kts 354°
2026-04-16 07:07 38.65196 -120.88202 25134 ft 440 kts 354°
2026-04-16 07:08 38.68261 -120.88255 25133 ft 440 kts 354°
2026-04-16 07:08 38.71321 -120.88309 25133 ft 440 kts 354°
2026-04-16 07:08 38.74345 -120.88364 25134 ft 441 kts 354°
2026-04-16 07:08 38.77409 -120.88419 25133 ft 441 kts 353°
2026-04-16 07:09 38.80474 -120.88474 25129 ft 440 kts 353°
2026-04-16 07:09 38.83535 -120.88531 25124 ft 440 kts 353°
2026-04-16 07:09 38.86594 -120.88588 25121 ft 440 kts 353°
2026-04-16 07:09 38.89660 -120.88643 25111 ft 441 kts 353°
2026-04-16 07:10 38.92732 -120.88699 25111 ft 441 kts 353°
2026-04-16 07:10 38.95794 -120.88753 25113 ft 439 kts 353°
2026-04-16 07:10 38.98849 -120.88809 25108 ft 440 kts 353°
2026-04-16 07:10 39.01911 -120.88868 25112 ft 440 kts 353°
2026-04-16 07:11 39.04937 -120.88923 25106 ft 439 kts 353°
2026-04-16 07:11 39.07999 -120.88979 25107 ft 440 kts 353°
2026-04-16 07:11 39.11057 -120.89035 25105 ft 438 kts 353°
2026-04-16 07:11 39.14102 -120.89091 25100 ft 438 kts 352°
2026-04-16 07:12 39.17151 -120.89156 25113 ft 438 kts 352°
2026-04-16 07:12 39.20199 -120.89227 25111 ft 438 kts 352°
2026-04-16 07:12 39.23241 -120.89295 25113 ft 437 kts 352°
2026-04-16 07:12 39.26283 -120.89360 25111 ft 438 kts 352°
2026-04-16 07:13 39.29332 -120.89422 25108 ft 438 kts 352°
2026-04-16 07:13 39.32335 -120.89482 25103 ft 437 kts 352°
2026-04-16 07:13 39.35375 -120.89541 25093 ft 437 kts 352°
2026-04-16 07:13 39.38413 -120.89598 25113 ft 437 kts 352°
2026-04-16 07:14 39.41450 -120.89654 25108 ft 437 kts 352°
2026-04-16 07:14 39.44496 -120.89710 25097 ft 437 kts 352°
2026-04-16 07:14 39.47536 -120.89766 25094 ft 437 kts 352°
2026-04-16 07:14 39.50571 -120.89820 25074 ft 437 kts 352°
2026-04-16 07:15 39.53613 -120.89877 25054 ft 436 kts 352°
2026-04-16 07:15 39.56646 -120.89935 25073 ft 438 kts 352°
2026-04-16 07:15 39.59650 -120.89995 25052 ft 436 kts 352°
2026-04-16 07:15 39.62678 -120.90051 25042 ft 435 kts 352°
2026-04-16 07:16 39.65706 -120.90110 25048 ft 437 kts 351°
2026-04-16 07:16 39.68744 -120.90168 25041 ft 436 kts 351°
2026-04-16 07:16 39.71771 -120.90223 25040 ft 435 kts 351°
2026-04-16 07:16 39.74797 -120.90281 25030 ft 435 kts 351°
2026-04-16 07:17 39.77826 -120.90336 25024 ft 435 kts 351°
2026-04-16 07:17 39.80850 -120.90392 25024 ft 434 kts 351°
2026-04-16 07:17 39.83869 -120.90447 25024 ft 434 kts 351°
2026-04-16 07:17 39.86853 -120.90503 25023 ft 435 kts 351°
2026-04-16 07:18 39.89867 -120.90558 25012 ft 433 kts 351°
2026-04-16 07:18 39.92889 -120.90613 25008 ft 434 kts 351°
2026-04-16 07:18 39.95915 -120.90669 25004 ft 434 kts 351°
2026-04-16 07:18 39.98927 -120.90723 25008 ft 433 kts 351°
2026-04-16 07:19 40.01944 -120.90778 25006 ft 434 kts 351°
2026-04-16 07:19 40.04967 -120.90833 25008 ft 434 kts 351°
2026-04-16 07:19 40.07981 -120.90889 24991 ft 433 kts 351°
2026-04-16 07:19 40.11001 -120.90942 24993 ft 433 kts 351°
2026-04-16 07:20 40.14013 -120.90996 24998 ft 433 kts 351°
2026-04-16 07:20 40.16992 -120.91052 25002 ft 436 kts 350°
2026-04-16 07:20 40.20025 -120.91110 25005 ft 435 kts 350°
2026-04-16 07:20 40.23042 -120.91165 25004 ft 434 kts 350°
2026-04-16 07:21 40.26068 -120.91221 25006 ft 435 kts 350°
2026-04-16 07:21 40.29101 -120.91277 25011 ft 436 kts 350°
2026-04-16 07:21 40.32127 -120.91334 25015 ft 435 kts 350°
2026-04-16 07:21 40.35157 -120.91391 25017 ft 435 kts 350°
2026-04-16 07:22 40.38185 -120.91447 25006 ft 435 kts 350°
2026-04-16 07:22 40.41221 -120.91508 25026 ft 437 kts 350°
2026-04-16 07:22 40.44259 -120.91566 25024 ft 436 kts 350°
2026-04-16 07:22 40.47243 -120.91642 25016 ft 432 kts 347°
2026-04-16 07:23 40.50219 -120.92017 25023 ft 428 kts 343°
2026-04-16 07:23 40.53208 -120.92330 25026 ft 434 kts 348°
2026-04-16 07:23 40.56241 -120.92425 25019 ft 437 kts 350°
2026-04-16 07:23 40.59283 -120.92451 25030 ft 437 kts 350°
2026-04-16 07:24 40.62320 -120.92452 25024 ft 437 kts 350°
2026-04-16 07:24 40.65363 -120.92446 25022 ft 437 kts 350°
2026-04-16 07:24 40.68405 -120.92444 25028 ft 437 kts 350°
2026-04-16 07:24 40.71442 -120.92446 25035 ft 436 kts 350°
2026-04-16 07:25 40.74477 -120.92456 25041 ft 436 kts 350°
2026-04-16 07:25 40.77469 -120.92472 25043 ft 436 kts 349°
2026-04-16 07:25 40.80497 -120.92491 25051 ft 435 kts 349°
2026-04-16 07:25 40.83523 -120.92511 25060 ft 435 kts 349°
2026-04-16 07:26 40.86549 -120.92534 25067 ft 436 kts 349°
2026-04-16 07:26 40.89581 -120.92560 25065 ft 435 kts 349°
2026-04-16 07:26 40.92606 -120.92586 25069 ft 434 kts 349°
2026-04-16 07:26 40.95625 -120.92614 25071 ft 434 kts 349°
2026-04-16 07:27 40.98650 -120.92641 25078 ft 435 kts 349°
2026-04-16 07:27 41.01671 -120.92655 25078 ft 434 kts 349°
2026-04-16 07:27 41.04692 -120.92658 25089 ft 434 kts 349°
2026-04-16 07:27 41.07672 -120.92655 25093 ft 433 kts 349°
2026-04-16 07:28 41.10624 -120.93005 25100 ft 423 kts 341°
2026-04-16 07:28 41.13519 -120.93631 25100 ft 420 kts 339°
2026-04-16 07:28 41.16384 -120.94304 25106 ft 418 kts 339°
2026-04-16 07:28 41.19250 -120.94979 25109 ft 418 kts 339°
2026-04-16 07:29 41.22120 -120.95640 25109 ft 418 kts 339°
2026-04-16 07:29 41.24988 -120.96288 25120 ft 418 kts 339°
2026-04-16 07:29 41.27856 -120.96927 25116 ft 417 kts 340°
2026-04-16 07:29 41.30725 -120.97556 25120 ft 418 kts 340°
2026-04-16 07:30 41.33555 -120.98167 25125 ft 418 kts 340°
2026-04-16 07:30 41.36422 -120.98781 25123 ft 416 kts 340°
2026-04-16 07:30 41.39285 -120.99396 25123 ft 417 kts 340°
2026-04-16 07:30 41.42148 -121.00011 25122 ft 416 kts 340°
2026-04-16 07:31 41.45005 -121.00624 25131 ft 416 kts 340°
2026-04-16 07:31 41.47867 -121.01239 25130 ft 417 kts 340°
2026-04-16 07:31 41.50728 -121.01856 25136 ft 416 kts 339°
2026-04-16 07:31 41.53589 -121.02472 25136 ft 417 kts 339°
2026-04-16 07:32 41.56449 -121.03090 25139 ft 417 kts 339°
2026-04-16 07:32 41.59310 -121.03703 25137 ft 417 kts 339°
2026-04-16 07:32 41.62171 -121.04318 25140 ft 416 kts 339°
2026-04-16 07:32 41.64991 -121.04928 25143 ft 416 kts 339°
2026-04-16 07:33 41.67857 -121.05539 25139 ft 416 kts 339°
2026-04-16 07:33 41.70717 -121.06141 25136 ft 417 kts 340°
2026-04-16 07:33 41.73583 -121.06746 25139 ft 417 kts 340°
2026-04-16 07:33 41.76451 -121.07349 25140 ft 417 kts 340°
2026-04-16 07:34 41.79312 -121.07948 25140 ft 416 kts 340°
2026-04-16 07:34 41.82173 -121.08548 25138 ft 416 kts 340°
2026-04-16 07:34 41.85037 -121.09152 25141 ft 417 kts 340°
2026-04-16 07:34 41.87908 -121.09755 25139 ft 417 kts 340°
2026-04-16 07:35 41.90730 -121.10353 25143 ft 416 kts 340°
2026-04-16 07:35 41.93592 -121.10961 25144 ft 417 kts 340°
2026-04-16 07:35 41.96459 -121.11567 25144 ft 416 kts 340°
2026-04-16 07:35 41.99316 -121.12171 25143 ft 416 kts 340°
2026-04-16 07:36 42.02178 -121.12777 25140 ft 416 kts 340°
2026-04-16 07:36 42.05038 -121.13384 25142 ft 416 kts 340°
2026-04-16 07:36 42.07893 -121.13988 25136 ft 416 kts 340°
2026-04-16 07:36 42.10746 -121.14591 25139 ft 415 kts 340°
2026-04-16 07:37 42.13605 -121.15205 25142 ft 416 kts 340°
2026-04-16 07:37 42.16462 -121.15816 25137 ft 416 kts 340°
2026-04-16 07:37 42.19319 -121.16425 25143 ft 415 kts 340°
2026-04-16 07:37 42.22136 -121.17025 25143 ft 416 kts 340°
2026-04-16 07:38 42.24995 -121.17640 25142 ft 416 kts 340°
2026-04-16 07:38 42.27855 -121.18255 25145 ft 416 kts 340°
2026-04-16 07:38 42.30712 -121.18868 25144 ft 416 kts 340°
2026-04-16 07:38 42.33576 -121.19484 25140 ft 417 kts 340°
2026-04-16 07:39 42.36443 -121.20098 25145 ft 417 kts 340°
2026-04-16 07:39 42.39307 -121.20712 25143 ft 417 kts 341°
2026-04-16 07:39 42.42173 -121.21329 25144 ft 417 kts 341°
2026-04-16 07:39 42.45039 -121.21946 25146 ft 417 kts 341°
2026-04-16 07:40 42.47907 -121.22564 25149 ft 417 kts 341°
2026-04-16 07:40 42.50738 -121.23170 25146 ft 417 kts 341°
2026-04-16 07:40 42.53602 -121.23785 25143 ft 417 kts 341°
2026-04-16 07:40 42.56474 -121.24401 25150 ft 418 kts 341°
2026-04-16 07:41 42.59341 -121.25020 25142 ft 417 kts 341°
2026-04-16 07:41 42.62205 -121.25638 25146 ft 417 kts 341°
2026-04-16 07:41 42.65075 -121.26260 25155 ft 417 kts 341°
2026-04-16 07:41 42.67942 -121.26885 25155 ft 417 kts 341°
2026-04-16 07:42 42.70804 -121.27513 25155 ft 416 kts 341°
2026-04-16 07:42 42.73667 -121.28139 25150 ft 417 kts 341°
2026-04-16 07:42 42.76494 -121.28753 25149 ft 418 kts 341°
2026-04-16 07:42 42.79365 -121.29376 25144 ft 417 kts 341°
2026-04-16 07:43 42.82230 -121.29999 25143 ft 417 kts 341°
2026-04-16 07:43 42.85102 -121.30622 25146 ft 418 kts 341°
2026-04-16 07:43 42.87971 -121.31247 25149 ft 418 kts 341°
2026-04-16 07:43 42.90840 -121.31873 25146 ft 417 kts 341°
2026-04-16 07:44 42.93713 -121.32501 25149 ft 419 kts 341°
2026-04-16 07:44 42.96590 -121.33131 25156 ft 418 kts 342°
2026-04-16 07:44 42.99460 -121.33757 25152 ft 418 kts 342°
2026-04-16 07:44 43.02336 -121.34387 25151 ft 419 kts 342°
2026-04-16 07:45 43.05212 -121.35018 25148 ft 418 kts 342°
2026-04-16 07:45 43.08043 -121.35640 25153 ft 418 kts 342°
2026-04-16 07:45 43.10920 -121.36277 25150 ft 419 kts 342°
2026-04-16 07:45 43.13793 -121.36914 25147 ft 418 kts 342°
2026-04-16 07:46 43.16667 -121.37544 25148 ft 418 kts 342°
2026-04-16 07:46 43.19537 -121.38176 25148 ft 419 kts 342°
2026-04-16 07:46 43.22417 -121.38810 25143 ft 419 kts 342°
2026-04-16 07:46 43.25292 -121.39447 25144 ft 418 kts 342°
2026-04-16 07:47 43.28163 -121.40085 25145 ft 419 kts 342°
2026-04-16 07:47 43.31039 -121.40724 25139 ft 418 kts 342°
2026-04-16 07:47 43.33911 -121.41360 25141 ft 418 kts 343°
2026-04-16 07:47 43.36779 -121.41998 25136 ft 418 kts 343°
2026-04-16 07:48 43.39610 -121.42634 25144 ft 418 kts 343°
2026-04-16 07:48 43.42479 -121.43277 25150 ft 418 kts 343°
2026-04-16 07:48 43.45348 -121.43915 25146 ft 417 kts 343°
2026-04-16 07:48 43.48216 -121.44547 25148 ft 417 kts 343°
2026-04-16 07:49 43.51085 -121.45181 25155 ft 418 kts 343°
2026-04-16 07:49 43.53953 -121.45819 25148 ft 417 kts 343°
2026-04-16 07:49 43.56816 -121.46457 25147 ft 417 kts 343°
2026-04-16 07:49 43.59679 -121.47094 25148 ft 417 kts 344°
2026-04-16 07:50 43.62541 -121.47731 25148 ft 416 kts 344°
2026-04-16 07:50 43.65394 -121.48370 25147 ft 416 kts 344°
2026-04-16 07:50 43.68213 -121.49001 25149 ft 416 kts 344°
2026-04-16 07:50 43.71070 -121.49643 25148 ft 415 kts 344°
2026-04-16 07:51 43.73920 -121.50281 25154 ft 415 kts 344°
2026-04-16 07:51 43.76769 -121.50920 25152 ft 415 kts 345°
2026-04-16 07:51 43.79615 -121.51557 25155 ft 415 kts 345°
2026-04-16 07:51 43.82461 -121.52198 25154 ft 414 kts 345°
2026-04-16 07:52 43.85302 -121.52839 25148 ft 413 kts 345°